EST,Max TemperatureF,Mean TemperatureF,Min TemperatureF,Max Dew PointF,MeanDew PointF,Min DewpointF,Max Humidity, Mean Humidity, Min Humidity, Max Sea Level PressureIn, Mean Sea Level PressureIn, Min Sea Level PressureIn, Max VisibilityMiles, Mean VisibilityMiles, Min VisibilityMiles, Max Wind SpeedMPH, Mean Wind SpeedMPH, Max Gust SpeedMPH,PrecipitationIn, CloudCover, Events, WindDirDegrees
2012-12-1,57,46,34,45,40,31,100,78,55,30.46,30.42,30.39,10,5,0,12,4,15,0.00,2,Fog,52
2012-12-2,53,46,38,48,43,37,100,89,77,30.40,30.30,30.16,10,5,0,15,6,20,0.01,4,Fog,193
2012-12-3,68,56,44,51,47,43,93,73,52,30.27,30.22,30.14,10,9,6,12,3,15,0.00,2,,280
2012-12-4,63,53,43,52,49,41,93,79,65,30.28,30.20,30.04,10,8,5,20,7,24,0.00,4,,183
2012-12-5,59,47,34,50,36,19,83,62,41,30.27,30.08,29.96,10,10,10,24,11,30,T,3,,298
2012-12-6,42,33,24,26,21,17,81,63,45,30.39,30.32,30.27,10,10,10,14,5,16,0.00,1,,12
2012-12-7,49,38,27,48,38,25,100,88,76,30.30,30.16,30.02,10,9,3,10,1,17,0.28,7,Rain,154
2012-12-8,55,52,49,52,50,47,100,92,83,30.04,29.95,29.91,10,5,0,9,4,13,1.46,8,Fog-Rain,242
2012-12-9,54,51,47,52,48,42,100,93,86,30.22,30.12,30.00,10,3,0,21,7,25,0.84,8,Fog-Rain,54
2012-12-10,61,57,53,59,55,52,100,95,90,30.00,29.77,29.59,10,5,0,17,8,24,0.48,8,Fog-Rain,191
2012-12-11,61,49,37,56,40,29,93,75,56,30.21,29.91,29.62,10,10,9,26,8,32,0.01,7,Rain,322
2012-12-12,44,38,32,29,26,23,78,64,49,30.43,30.37,30.22,10,10,10,10,4,15,0.00,0,,358
2012-12-13,47,37,27,28,26,23,85,65,45,30.45,30.40,30.35,10,10,10,17,5,23,0.00,0,,28
2012-12-14,51,38,24,31,25,20,88,62,36,30.35,30.28,30.21,10,10,10,13,4,18,0.00,0,,253
2012-12-15,50,39,27,41,32,23,92,74,56,30.34,30.26,30.19,10,10,9,8,2,11,0.00,0,,95
2012-12-16,53,50,47,50,47,42,100,89,77,30.16,30.00,29.88,10,5,0,9,2,12,0.27,8,Fog-Rain,106
2012-12-17,54,50,46,52,47,45,100,97,93,29.88,29.82,29.60,4,1,0,12,6,17,0.05,8,Fog-Rain,69
2012-12-18,60,51,42,54,45,29,93,70,47,29.72,29.57,29.50,10,9,0,25,13,33,0.07,5,Rain,251
2012-12-19,51,43,34,30,29,26,76,59,42,30.15,29.91,29.74,10,10,10,23,13,31,0.00,0,,292
2012-12-20,52,40,27,46,32,24,85,71,57,30.23,30.09,29.71,10,10,9,25,8,32,0.02,2,Rain,107
2012-12-21,57,47,37,55,39,23,93,72,50,29.61,29.35,29.19,10,9,2,33,18,51,0.56,7,Rain,221
2012-12-22,43,40,36,25,21,18,64,52,39,29.96,29.69,29.46,10,10,10,29,20,43,T,5,,281
2012-12-23,45,38,30,27,20,14,70,50,30,30.05,29.98,29.93,10,10,10,16,8,22,0.00,0,,247
2012-12-24,44,33,22,39,29,19,92,68,43,30.10,30.02,29.92,10,8,3,10,4,15,0.23,5,Rain,61
2012-12-25,45,39,32,40,33,27,93,79,65,30.27,30.07,29.88,10,9,4,18,8,22,0.00,6,,316
2012-12-26,55,43,31,54,41,25,100,85,69,30.28,29.79,29.29,10,6,2,37,13,51,2.60,8,Rain,54
2012-12-27,52,43,34,48,36,22,93,75,56,29.91,29.47,29.26,10,7,2,33,18,45,0.02,8,Rain,296
2012-12-28,43,35,26,26,23,20,78,62,46,30.10,30.05,29.93,10,10,10,22,8,29,0.00,2,,310
2012-12-29,43,37,30,41,32,24,92,82,72,30.05,29.73,29.51,10,6,0,23,8,31,0.25,7,Rain,347
2012-12-30,40,35,29,24,19,16,72,55,37,30.27,30.00,29.71,10,10,10,38,18,47,0.00,3,,297
2012-12-31,42,35,28,27,21,19,69,54,39,30.29,30.16,29.97,10,10,10,17,9,24,0.00,3,,246